Location: Tamazert
(32.6352°N, 5.2072°W)
Time: 05:15:07
(UTC+00:00)

Vanguard 2 - Pass Details

Date: 03 October 2022
Orbit: 553 x 2933 km, 32.9° (Epoch: 04 December)

Event Time Altitude Azimuth Distance (km) Brightness Sun altitude
Rises 14:57:31 0° 267° (W) 5,131 12.5 35.9°
Reaches altitude 10° 15:00:25 10° 268° (W) 4,403 12.3 35.4°
Maximum altitude 15:13:44 89° 358° (N) 2,634 10.8 33.0°
Drops below altitude 10° 15:31:53 10° 91° (E) 5,754 11.6 29.7°
Sets 15:36:18 0° 92° (E) 6,712 11.9 28.9°
